sat.trackr.live / text

‹ back to catalog

ONEWEB-0581

NORAD 56069 · 2023-043Z

PAYLOAD ACTIVE UNKNOWN

§ Identity

Operator
Country
UK
Launch date
2023-03-26
Launch site
SRILR
Launch vehicle
Mass (kg)
RCS (m²)

Purposes: comms

External: N2YO · Heavens-Above · Gunter

§ Orbital elements

Epoch: 2026-09-20T03:30:55.183392Z

Period
109.37 min
Inclination
87.9155°
Eccentricity
0.0002472
Mean motion
13.16594125 rev/d
Perigee alt
1,195.9 km
Apogee alt
1,199.6 km
Semi-major
7,575.9 km
B*
-1.1247e-4
RAAN
209.9273°
Arg perigee
81.7243°
Mean anomaly
278.4168°
Rev number
17,145

§ Raw data

ONEWEB-05811 56069U 23043Z   26263.14647203 -.00000030  00000+0 -11247-3 0  99962 56069  87.9155 209.9273 0002472  81.7243 278.4168 13.16594125171456

JSON: /api/v1/satellites/56069 · /tle

For live sub-satellite position, see the globe view (requires WebGL).

§ Visibility from observer

Set your observer location to see the next 7 days of passes ≥ 10°. The values pass through the URL so the page stays shareable.

No JS? Fill the form by hand. The geolocation button needs JavaScript.